Weather History for Thedford, NE

Change the Weather History Date:

Tuesday, October 30, 2012

  Actual Average (KLBF) Record (KLBF)
Temperature  
Mean Temperature 53 °F 43 °F  
Max Temperature 71 °F 59 °F 91 °F (1950)
Min Temperature 36 °F 28 °F 8 °F (1925)
Degree Days  
Heating Degree Days 12 22  
Month to date heating degree days 476  
Since 1 July heating degree days 647  
Cooling Degree Days 0 0  
Month to date cooling degree days 0  
Year to date cooling degree days 765  
Growing Degree Days 3 (Base 50)    
Moisture  
Dew Point 37 °F    
Average Humidity 60    
Maximum Humidity 91    
Minimum Humidity 28    
Precipitation  
Precipitation 0.00 in 0.03 in 1.18 in (1943)
Month to date precipitation 1.51  
Year to date precipitation 19.14  
Snow  
Snow 0.00 in 0.10 in 7.30 in (2009)
Month to date snowfall 2.0  
Since 1 July snowfall 2.2  
Since 1 September snowfall 2.2  
Snow Depth -    
Sea Level Pressure  
Sea Level Pressure 30.01 in    
Wind  
Wind Speed 3 mph (NW)    
Max Wind Speed 14 mph    
Max Gust Speed 23 mph    
Visibility 10 miles    
Events      
T = Trace of Precipitation, MM = Missing Value Source: NWS Daily Summary

Daily Weather History Graph

Daily Weather History Graph

Search for Another Location

Airport:

Trip Planner

Search our weather history database for the weather conditions in past years. The results will help you decide how hot, cold, wet, or windy it might be!

Date:

Astronomy

Oct. 30, 2012 Rise Set
Actual Time 8:13 AM CDT 6:38 PM CDT
Civil Twilight 7:44 AM CDT 7:07 PM CDT
Nautical Twilight 7:11 AM CDT 7:39 PM CDT
Astronomical Twilight 6:38 AM CDT 8:12 PM CDT
Moon 7:07 PM CDT (10/30) 9:02 AM CDT (10/30)
Length of Visible Light 11h 22m
Length of Day
10h 25m
Full, 99% of the Moon is Illuminated
Oct 30
Full
Nov 6
Last Quarter
Nov 13
New
Nov 20
First Quarter
Nov 28
Full

Hourly Weather History & Observations

Time (CDT) Temp. Windchill Dew Point Humidity Pressure Visibility Wind Dir Wind Speed Gust Speed Precip Events Conditions
12:15 AM 48.4 °F - 36.5 °F 64% 29.98 in 10.0 mi Calm Calm - N/A   Clear
12:35 AM 46.6 °F - 35.8 °F 66% 29.98 in 10.0 mi Calm Calm - N/A   Clear
12:55 AM 44.8 °F - 35.8 °F 71% 29.98 in 10.0 mi Calm Calm - N/A   Clear
1:15 AM 46.6 °F - 35.8 °F 66% 29.98 in 10.0 mi Calm Calm - N/A   Clear
1:35 AM 43.0 °F 41.3 °F 34.7 °F 73% 29.98 in 10.0 mi West 3.5 mph - N/A   Scattered Clouds
2:55 AM 44.6 °F - 37.0 °F 75% 29.97 in 10.0 mi Calm Calm - N/A   Scattered Clouds
3:15 AM 45.5 °F - 37.0 °F 72% 29.97 in 10.0 mi Calm Calm - N/A   Clear
3:55 AM 44.6 °F - 36.5 °F 73% 29.96 in 10.0 mi Calm Calm - N/A   Clear
4:15 AM 42.1 °F - 35.4 °F 77% 29.97 in 10.0 mi Calm Calm - N/A   Clear
4:35 AM 42.4 °F - 34.9 °F 75% 29.97 in 10.0 mi Calm Calm - N/A   Clear
4:55 AM 40.1 °F - 34.5 °F 80% 29.98 in 10.0 mi Calm Calm - N/A   Clear
5:15 AM 39.2 °F - 34.2 °F 82% 29.98 in 10.0 mi Calm Calm - N/A   Clear
5:35 AM 40.1 °F - 35.1 °F 82% 29.98 in 10.0 mi Calm Calm - N/A   Scattered Clouds
5:55 AM 38.3 °F - 33.8 °F 84% 29.98 in 10.0 mi Calm Calm - N/A   Scattered Clouds
6:15 AM 37.6 °F 35.1 °F 33.3 °F 84% 29.98 in 10.0 mi SW 3.5 mph - N/A   Clear
6:35 AM 37.8 °F 33.3 °F 34.7 °F 89% 29.98 in 10.0 mi WNW 5.8 mph - N/A   Clear
6:55 AM 36.5 °F - 33.8 °F 90% 29.99 in 10.0 mi Calm Calm - N/A   Clear
7:15 AM 36.1 °F - 33.3 °F 89% 29.99 in 10.0 mi Calm Calm - N/A   Clear
7:35 AM 36.3 °F 31.6 °F 34.0 °F 91% 29.99 in 10.0 mi WNW 5.8 mph - N/A   Clear
7:55 AM 38.5 °F 33.4 °F 35.6 °F 89% 30.00 in 10.0 mi WNW 6.9 mph - N/A   Clear
8:15 AM 39.2 °F 35.0 °F 36.0 °F 88% 30.00 in 10.0 mi WNW 5.8 mph - N/A   Clear
8:35 AM 37.6 °F 32.3 °F 34.9 °F 90% 30.01 in 10.0 mi WNW 6.9 mph - N/A   Clear
8:55 AM 39.2 °F 33.0 °F 36.5 °F 90% 30.02 in 10.0 mi WNW 9.2 mph - N/A   Clear
9:15 AM 42.1 °F 39.2 °F 37.8 °F 85% 30.03 in 10.0 mi WNW 4.6 mph - N/A   Clear
9:35 AM 46.0 °F 42.5 °F 39.4 °F 78% 30.03 in 10.0 mi NW 6.9 mph - N/A   Clear
9:55 AM 48.4 °F - 40.6 °F 75% 30.03 in 10.0 mi NW 4.6 mph - N/A   Clear
10:15 AM 51.1 °F - 41.2 °F 69% 30.03 in 10.0 mi NW 6.9 mph - N/A   Clear
10:35 AM 55.4 °F - 41.7 °F 60% 30.03 in 10.0 mi NW 8.1 mph - N/A   Clear
10:55 AM 58.8 °F - 41.2 °F 52% 30.03 in 10.0 mi NNW 10.4 mph - N/A   Clear
11:15 AM 60.1 °F - 40.6 °F 49% 30.04 in 10.0 mi North 8.1 mph - N/A   Clear
11:35 AM 61.9 °F - 40.6 °F 46% 30.04 in 10.0 mi NNW 10.4 mph - N/A   Clear
11:55 AM 63.1 °F - 40.3 °F 43% 30.04 in 10.0 mi NNW 9.2 mph - N/A   Clear
12:15 PM 64.8 °F - 39.7 °F 40% 30.04 in 10.0 mi NW 9.2 mph - N/A   Clear
12:35 PM 66.2 °F - 39.0 °F 37% 30.04 in 10.0 mi NNW 11.5 mph 16.1 mph N/A   Clear
12:55 PM 67.1 °F - 38.3 °F 35% 30.03 in 10.0 mi North 9.2 mph - N/A   Clear
1:15 PM 68.2 °F - 38.3 °F 33% 30.03 in 10.0 mi NW 8.1 mph - N/A   Clear
1:35 PM 69.3 °F - 37.8 °F 32% 30.02 in 10.0 mi NNW 8.1 mph - N/A   Clear
1:55 PM 70.0 °F - 36.0 °F 29% 30.02 in 10.0 mi North 9.2 mph 16.1 mph N/A   Clear
2:15 PM 70.9 °F - 35.8 °F 28% 30.01 in 10.0 mi North 11.5 mph 18.4 mph N/A   Clear
2:35 PM 70.9 °F - 35.8 °F 28% 30.00 in 10.0 mi NNW 10.4 mph 19.6 mph N/A   Clear
2:55 PM 70.7 °F - 36.1 °F 28% 30.00 in 10.0 mi North 10.4 mph - N/A   Clear
3:15 PM 70.7 °F - 35.8 °F 28% 30.00 in 10.0 mi NW 11.5 mph 23.0 mph N/A   Clear
3:35 PM 70.3 °F - 35.6 °F 28% 30.00 in 10.0 mi NNW 13.8 mph - N/A   Clear
3:55 PM 69.1 °F - 35.6 °F 29% 30.00 in 10.0 mi North 12.7 mph 16.1 mph N/A   Clear
4:15 PM 70.2 °F - 36.0 °F 29% 30.01 in 10.0 mi NNW 12.7 mph 17.3 mph N/A   Clear
4:35 PM 69.8 °F - 36.1 °F 29% 30.01 in 10.0 mi North 9.2 mph - N/A   Clear
4:55 PM 68.4 °F - 36.5 °F 31% 30.01 in 10.0 mi North 5.8 mph - N/A   Clear
5:15 PM 68.7 °F - 36.5 °F 31% 30.01 in 10.0 mi NNW 9.2 mph - N/A   Clear
5:35 PM 67.3 °F - 36.5 °F 32% 30.00 in 10.0 mi North 3.5 mph - N/A   Clear
5:55 PM 65.3 °F - 36.0 °F 34% 30.01 in 10.0 mi North 4.6 mph - N/A   Clear
6:15 PM 63.0 °F - 36.7 °F 38% 30.01 in 10.0 mi North 3.5 mph - N/A   Clear
6:35 PM 60.3 °F - 37.2 °F 42% 30.01 in 10.0 mi Calm Calm - N/A   Clear
6:55 PM 58.3 °F - 37.4 °F 46% 30.01 in 10.0 mi Calm Calm - N/A   Clear
7:15 PM 58.1 °F - 37.6 °F 46% 30.02 in 10.0 mi Calm Calm - N/A   Clear
7:35 PM 56.8 °F - 38.1 °F 50% 30.02 in 10.0 mi Calm Calm - N/A   Scattered Clouds
7:55 PM 54.1 °F - 38.7 °F 56% 30.02 in 10.0 mi Calm Calm - N/A   Scattered Clouds
8:15 PM 50.7 °F - 37.9 °F 62% 30.02 in 10.0 mi Calm Calm - N/A   Clear
8:35 PM 50.2 °F - 37.8 °F 62% 30.02 in 10.0 mi Calm Calm - N/A   Clear
8:55 PM 50.7 °F - 37.6 °F 61% 30.02 in 10.0 mi Calm Calm - N/A   Clear
9:15 PM 46.4 °F - 36.9 °F 69% 30.02 in 10.0 mi Calm Calm - N/A   Clear
9:35 PM 45.7 °F - 36.9 °F 71% 30.02 in 10.0 mi Calm Calm - N/A   Clear
9:55 PM 45.3 °F - 36.9 °F 72% 30.03 in 10.0 mi Calm Calm - N/A   Clear
10:15 PM 45.3 °F - 36.7 °F 72% 30.03 in 10.0 mi Calm Calm - N/A   Clear
10:35 PM 42.8 °F - 36.1 °F 77% 30.03 in 10.0 mi Calm Calm - N/A   Clear
10:55 PM 43.2 °F - 36.3 °F 77% 30.03 in 10.0 mi Calm Calm - N/A   Clear
11:15 PM 41.7 °F - 35.6 °F 79% 30.03 in 10.0 mi Calm Calm - N/A   Clear
11:35 PM 42.8 °F - 36.7 °F 79% 30.04 in 10.0 mi Calm Calm - N/A   Scattered Clouds
11:55 PM 41.7 °F 39.8 °F 36.3 °F 81% 30.04 in 10.0 mi WNW 3.5 mph - N/A   Scattered Clouds